Temperature
29 26 25 25 26 27 27 26 26 27 28 27 26 25 25 25 25 25 25 24 24 24 24 23 23 23 22 22 21 21 21 20 20 20 20 19 19 19 19 19 19 19 19 19
26 26 27 28 28 28 27 26 26 27 28 27 25 25 25 25 25 25 25 24 24 24 24 23 23 23 22 22 22 21 21 21 20 20 20 20 19 19 19 19 19 19 19 19
26 27 29 29 28 28 27 26 26 27 27 27 26 24 24 25 25 25 25 25 25 24 24 24 23 23 22 22 22 22 21 21 20 20 20 20 19 19 19 19 19 19 19 19
26 28 29 29 28 28 27 28 28 28 26 24 25 23 24 24 24 25 25 25 25 25 24 24 24 23 23 23 22 22 21 21 21 20 20 20 20 20 20 20 19 19 19 19
26 28 28 28 29 29 28 29 29 28 25 24 24 23 23 23 24 24 24 25 25 25 25 25 24 24 23 23 23 22 22 21 21 21 21 20 20 20 20 20 19 19 19 19
27 28 29 29 29 30 29 28 26 24 23 23 23 23 23 22 24 24 25 25 25 26 25 25 25 24 24 23 23 22 22 22 21 21 21 21 20 20 20 20 20 20 19 19
26 27 28 29 28 29 28 25 23 23 22 22 23 23 23 24 25 25 25 26 26 26 25 25 25 24 24 23 23 23 22 22 22 21 21 21 21 20 20 20 20 20 20 20
25 25 27 29 28 27 26 24 23 23 23 22 23 23 24 26 26 26 26 26 26 26 25 25 25 25 24 24 23 23 23 22 22 22 21 21 21 21 21 20 20 20 20 20
24 25 28 29 30 28 27 25 23 22 22 22 23 24 24 26 25 25 26 25 26 25 25 25 25 25 24 24 24 23 23 23 22 22 22 22 21 21 21 21 20 20 20 20
24 25 27 29 29 28 27 25 22 22 22 22 23 24 23 24 24 24 24 25 25 25 25 25 25 25 24 24 24 23 23 23 23 22 22 22 22 21 21 21 20 20 20 20
24 24 25 27 27 27 27 26 23 20 21 22 22 23 25 24 23 23 24 24 24 25 25 25 25 25 24 24 24 23 23 23 23 23 22 22 22 21 21 21 20 20 20 20
23 22 23 25 26 28 27 26 23 23 22 20 21 22 25 24 24 24 24 24 24 25 25 25 25 25 24 24 24 23 23 23 23 23 22 22 22 21 21 21 20 20 20 19
23 21 22 23 24 26 26 25 23 22 20 20 21 23 24 23 24 24 24 24 24 24 24 25 25 24 24 24 24 24 23 23 23 23 22 22 22 21 21 21 21 20 20 19
23 20 21 23 23 24 26 26 25 22 21 21 22 23 23 23 23 23 24 24 24 24 24 24 24 24 24 24 24 24 24 24 23 23 22 22 22 22 21 21 21 20 20 19
20 20 22 22 24 25 26 26 26 24 23 23 23 23 23 23 23 24 24 23 23 23 23 24 24 24 24 24 24 23 23 23 23 23 22 22 22 21 21 21 20 20 20 20
18 20 21 23 24 25 25 26 26 26 25 24 24 23 23 23 24 23 23 23 23 23 23 23 24 24 24 23 23 23 23 23 23 22 22 22 22 21 21 21 21 20 20 19
18 19 19 20 22 24 24 25 25 25 24 24 23 22 22 22 22 22 23 23 23 23 23 23 23 23 23 23 23 23 23 23 23 22 22 22 22 21 21 21 20 20 20 19
18 18 16 18 21 22 22 23 25 24 23 23 22 22 22 22 22 23 24 23 23 23 23 23 23 23 23 23 23 23 23 23 22 22 22 22 22 21 21 21 20 20 19 19
18 18 17 17 19 21 22 24 24 23 22 22 22 21 21 22 22 22 23 23 23 23 23 23 23 23 23 23 23 22 22 22 22 22 22 21 21 21 21 20 20 20 19 19
17 17 17 17 19 20 21 23 24 22 20 21 21 20 20 21 19 20 22 22 23 23 23 23 23 22 22 22 22 22 22 22 22 21 21 21 21 21 21 20 20 19 19 19
17 17 17 17 18 19 20 22 23 21 20 20 21 21 20 19 20 21 21 22 22 22 22 22 22 22 22 22 22 21 21 21 21 21 21 20 20 20 20 20 19 19 19 18
16 16 16 16 17 18 20 21 20 19 20 20 20 20 20 20 20 21 21 21 21 21 21 22 21 21 21 21 21 21 20 20 20 20 20 20 20 19 19 19 19 18 18 18
15 15 15 15 16 17 19 19 20 20 20 20 20 20 20 20 19 20 20 20 21 21 21 21 21 20 20 20 20 20 20 20 20 19 19 19 19 19 19 18 18 18 18 17
15 15 14 15 16 17 18 19 19 20 20 20 20 20 20 19 19 19 19 20 20 20 20 20 20 20 20 20 20 20 19 19 19 19 19 19 19 18 18 18 18 17 17 17
14 14 13 14 15 16 18 18 18 19 19 19 19 19 19 19 18 19 19 19 19 19 19 19 19 19 19 19 19 19 19 19 18 18 18 18 18 17 17 17 17 17 17 16
13 14 13 14 15 14 16 17 18 18 18 18 18 18 18 18 18 18 18 18 18 19 19 19 19 19 19 18 18 18 18 18 18 18 17 17 17 17 16 16 16 16 16 16
Wind_Speed
1 3 4 7 7 8 7 5 5 7 5 4 4 6 12 14 13 12 11 11 12 13 11 12 13 12 12 10 9 9 8 7 5 4 3 3 2 1 1 2 4 5 5 6
2 5 11 8 5 5 5 5 5 4 5 5 4 3 8 11 14 13 13 12 12 11 10 11 11 12 12 12 10 9 9 8 6 5 4 3 3 2 2 2 3 5 5 5
8 9 7 6 6 6 6 8 8 5 2 4 5 1 3 6 8 10 12 13 13 15 15 14 14 12 12 12 12 11 9 7 6 5 3 2 2 1 0 1 2 3 5 5
7 9 7 7 8 8 6 8 8 6 4 2 4 4 6 7 8 11 12 12 13 14 13 14 15 14 15 13 11 10 10 9 7 6 5 4 4 3 3 3 3 3 3 4
7 6 7 8 9 8 8 7 5 4 4 1 0 4 6 3 7 11 12 13 13 14 15 16 16 16 15 14 12 10 10 9 8 7 7 6 4 3 2 2 3 3 2 4
9 7 6 8 8 8 5 2 4 4 4 1 5 4 6 7 12 11 11 12 13 14 15 15 15 14 13 12 12 11 11 9 8 8 8 7 6 5 4 3 3 3 2 2
7 8 6 4 4 5 2 4 3 4 3 5 4 3 8 10 11 13 13 14 13 14 15 15 15 15 14 14 13 12 12 10 9 9 8 8 7 7 7 5 4 4 3 3
5 8 7 6 9 8 5 9 8 6 5 4 3 5 7 8 9 10 11 11 12 13 14 15 16 16 16 15 14 13 13 11 10 10 9 8 7 6 5 5 5 5 4 4
8 9 8 7 7 9 6 5 9 8 3 2 4 4 6 2 4 6 8 9 12 13 14 15 14 14 14 14 14 14 14 11 10 10 9 8 7 6 6 5 5 4 4 4
9 6 7 7 2 2 8 8 6 6 6 4 4 4 4 4 4 6 8 10 9 10 12 13 12 13 13 12 11 12 12 12 10 10 9 8 7 7 6 5 5 5 5 4
7 6 7 3 6 8 4 4 6 5 6 7 4 6 5 6 6 8 9 8 8 8 10 11 12 12 11 11 11 11 11 10 9 10 9 8 7 7 6 5 6 5 4 5
3 6 5 8 8 7 7 7 8 6 4 5 5 6 4 6 7 8 8 7 7 8 9 11 11 10 10 11 11 11 11 11 10 10 8 8 7 7 6 6 6 5 5 5
2 5 1 7 7 3 2 3 6 7 5 5 5 5 2 4 5 7 9 9 8 8 8 8 8 9 10 11 11 11 12 12 10 9 9 8 7 7 7 7 6 5 5 5
3 4 6 8 7 4 3 3 4 7 5 5 7 7 4 5 7 6 8 9 9 9 8 7 7 7 8 8 10 11 11 10 10 9 9 9 9 8 7 6 5 4 5 4
5 3 2 4 4 2 3 4 4 5 8 8 8 9 9 10 10 9 9 10 10 9 7 6 7 7 7 7 7 7 8 8 10 10 10 10 8 7 6 5 5 4 4 5
5 2 2 3 2 3 3 4 3 2 3 6 6 5 6 6 6 7 8 11 11 9 8 7 7 7 7 8 7 7 7 8 8 9 9 8 7 6 6 6 5 5 4 3
2 3 3 2 4 3 3 3 2 1 1 5 5 6 5 5 7 8 9 10 11 10 9 9 10 9 8 7 7 8 8 8 8 8 7 7 7 7 6 6 5 5 4 2
4 2 2 0 3 3 7 3 3 5 3 3 5 4 6 8 7 6 7 9 9 9 9 8 7 7 7 6 5 5 5 6 7 7 6 6 7 7 6 6 6 5 4 3
7 6 3 3 2 4 6 4 1 3 3 3 6 6 6 7 7 3 1 5 7 7 7 7 7 6 6 6 5 5 5 5 6 6 6 5 6 6 6 6 6 5 4 3
4 6 5 3 3 5 6 6 1 7 2 3 5 7 6 6 4 2 1 3 5 6 6 6 6 7 6 5 6 6 5 5 5 4 5 4 5 6 6 6 5 4 3 4
3 2 4 4 4 5 6 7 3 4 5 2 3 6 4 3 4 4 3 4 4 5 5 7 7 6 6 6 7 6 5 4 4 4 3 3 3 4 5 4 4 4 4 4
3 2 3 4 3 6 5 4 2 4 3 2 3 5 5 5 5 5 6 5 5 5 5 6 6 5 4 5 7 6 4 3 3 4 3 3 2 2 2 3 3 3 4 4
1 4 4 5 5 4 2 1 1 4 5 3 4 5 7 7 6 5 4 5 5 5 4 5 6 5 4 3 4 4 2 2 3 3 3 2 2 2 2 2 3 3 3 3
4 3 2 1 2 3 4 5 5 5 5 4 4 5 7 7 6 5 4 3 4 4 4 5 6 6 4 3 3 3 2 2 3 3 2 2 2 1 1 0 2 3 3 3
3 2 1 1 3 4 5 3 3 4 5 6 4 4 5 7 5 4 3 3 3 3 3 5 6 5 4 4 3 2 3 3 3 2 3 2 1 1 1 1 1 1 3 4
3 4 4 6 6 2 3 2 2 3 2 3 4 4 4 5 5 3 2 2 3 3 3 4 4 5 4 4 4 3 3 4 4 3 3 2 2 1 2 2 1 4 2 1
Wind_Direction
277 102 224 225 200 184 181 193 221 231 209 166 189 180 177 179 177 179 183 184 183 184 182 172 168 162 158 158 157 157 155 161 151 140 139 138 152 162 158 172 174 172 173 165
2 248 232 222 216 187 179 195 231 251 172 151 161 191 185 184 188 184 186 192 189 184 178 174 170 166 167 169 166 162 164 167 165 163 162 163 158 169 175 186 183 183 176 174
212 237 234 222 220 210 218 202 208 206 115 62 101 350 225 209 199 191 190 191 188 186 183 180 175 174 171 174 174 171 168 167 169 163 143 125 96 67 91 177 193 198 183 173
238 243 242 240 230 198 234 222 201 187 139 196 155 197 248 210 208 202 197 195 194 190 184 181 178 177 178 180 174 166 168 168 170 162 157 157 164 180 201 193 190 194 185 171
242 227 222 231 232 207 217 217 186 178 147 118 160 154 256 203 213 217 208 201 197 192 185 183 181 181 179 176 174 171 168 174 177 171 173 171 180 190 192 177 165 177 184 180
245 249 217 220 232 217 208 83 47 54 82 232 230 170 245 205 212 215 212 208 200 194 189 186 180 174 175 175 175 174 173 180 181 177 177 179 180 183 177 186 182 188 190 190
284 280 260 217 244 264 154 107 34 354 6 248 239 189 238 224 206 202 204 204 197 191 186 181 175 173 176 178 180 179 177 183 185 182 185 187 188 187 189 195 194 188 187 196
222 269 253 221 200 206 202 150 165 193 218 267 290 225 249 227 204 196 191 191 185 181 178 180 179 177 179 180 180 179 182 186 185 186 190 191 191 190 195 197 194 194 195 200
197 242 259 237 210 172 180 184 171 149 176 225 265 274 308 246 182 183 177 170 181 181 174 173 175 175 178 182 184 184 184 187 189 189 189 191 193 192 196 199 194 196 199 198
181 234 268 254 224 218 171 162 112 131 165 220 265 241 229 228 187 172 171 176 178 178 172 169 175 178 180 179 181 183 183 186 189 190 191 194 194 196 198 193 195 196 199 189
177 196 279 298 203 213 195 146 130 138 163 165 221 259 220 183 183 165 166 160 162 167 168 169 173 179 175 170 174 182 183 184 188 191 192 192 193 194 194 198 200 197 197 188
182 158 236 251 246 212 186 180 151 159 210 169 171 255 249 172 163 157 161 164 165 156 156 170 174 171 169 175 177 181 186 188 193 193 191 195 193 190 194 202 203 198 199 197
125 123 197 319 325 347 161 178 159 147 141 160 169 238 239 164 147 151 156 158 156 149 151 158 164 168 174 179 182 184 193 194 194 189 188 191 192 191 196 200 199 196 194 197
92 110 165 202 226 250 262 238 172 137 159 191 203 198 209 181 172 162 151 149 147 145 150 159 166 167 171 179 183 185 194 192 188 185 185 191 196 197 198 195 191 186 182 184
76 110 183 219 233 230 256 261 227 183 182 182 207 193 205 197 184 174 156 144 139 140 148 160 170 170 168 173 182 183 191 190 186 181 185 193 191 186 181 179 183 181 183 187
45 79 34 340 336 5 334 289 249 222 172 166 162 208 220 187 159 153 152 145 146 155 163 164 165 167 171 176 184 184 194 192 178 178 188 187 180 180 182 183 182 180 182 186
21 71 56 302 320 25 311 273 203 161 146 153 180 207 162 141 154 167 164 156 160 162 165 171 177 174 176 176 176 182 189 176 167 177 182 179 178 179 184 183 178 182 183 177
155 106 127 139 41 214 241 276 104 95 59 96 126 153 149 151 161 161 157 161 164 160 162 166 176 172 168 164 166 169 162 158 166 174 184 182 178 183 185 179 183 184 177 180
165 149 137 132 175 269 298 314 92 116 10 44 114 113 102 110 89 63 117 140 152 150 150 147 149 150 151 149 149 139 143 151 158 177 187 188 183 183 182 186 188 182 171 180
84 121 133 141 160 217 254 294 333 97 35 342 104 121 121 99 106 219 211 113 123 130 133 132 132 124 127 139 138 138 149 143 155 178 181 178 179 183 187 189 181 175 176 193
27 55 141 169 202 250 270 299 37 115 210 261 114 121 112 124 168 183 129 106 115 121 124 127 125 131 143 143 134 134 145 162 179 159 144 150 164 179 179 171 171 168 174 179
193 170 176 156 186 245 302 15 109 193 189 146 98 102 97 104 103 101 100 105 107 114 118 123 124 127 125 127 131 136 155 178 145 126 121 130 140 157 151 148 164 165 168 179
196 195 185 177 205 254 344 118 163 129 118 110 98 99 104 102 99 94 92 99 108 112 120 119 121 115 96 97 114 133 175 139 117 118 128 122 111 119 126 156 162 157 169 182
320 1 68 49 290 321 11 49 49 77 90 93 102 102 97 97 94 90 90 87 97 101 111 114 112 112 108 106 111 140 148 120 126 134 128 100 99 85 73 111 165 166 182 192
275 348 359 287 281 353 355 22 54 46 56 63 67 83 98 103 103 112 120 128 124 119 119 119 123 129 135 131 141 164 149 138 137 138 132 122 115 115 94 68 80 185 213 211
245 211 199 229 232 192 262 313 58 66 60 80 74 58 60 98 109 109 122 145 134 129 124 122 131 148 158 153 158 173 171 154 151 158 158 154 152 149 150 137 48 22 21 352
Height
1479 1486 1493 1489 1487 1489 1493 1498 1501 1496 1489 1495 1500 1501 1500 1501 1503 1505 1507 1509 1511 1512 1515 1517 1519 1521 1522 1524 1525 1526 1527 1528 1529 1529 1530 1531 1532 1533 1534 1535 1536 1537 1538 1539
1485 1488 1480 1479 1481 1484 1490 1498 1499 1492 1487 1494 1500 1502 1498 1499 1499 1500 1503 1506 1508 1511 1513 1516 1518 1520 1521 1522 1524 1525 1526 1527 1529 1529 1530 1531 1533 1534 1534 1535 1536 1537 1538 1539
1486 1480 1474 1478 1482 1487 1490 1495 1495 1496 1491 1493 1501 1510 1505 1500 1500 1500 1501 1502 1505 1507 1509 1512 1515 1517 1519 1521 1522 1524 1526 1528 1529 1530 1531 1532 1533 1533 1534 1534 1535 1536 1537 1538
1479 1472 1473 1477 1479 1483 1492 1481 1484 1489 1500 1510 1506 1526 1509 1501 1499 1497 1498 1500 1501 1504 1506 1508 1511 1514 1516 1519 1521 1523 1525 1527 1528 1529 1530 1531 1531 1532 1533 1534 1535 1536 1537 1537
1477 1469 1472 1476 1474 1474 1480 1473 1479 1485 1498 1510 1508 1520 1513 1500 1500 1495 1494 1495 1497 1500 1502 1505 1507 1510 1514 1517 1519 1522 1524 1525 1527 1528 1529 1530 1531 1532 1533 1534 1534 1535 1536 1536
1469 1464 1465 1466 1464 1466 1468 1475 1484 1493 1504 1522 1512 1517 1516 1502 1493 1489 1488 1491 1493 1496 1499 1502 1505 1508 1512 1515 1518 1520 1522 1524 1526 1527 1528 1529 1530 1531 1532 1533 1533 1534 1534 1535
1474 1465 1461 1461 1467 1466 1470 1492 1517 1522 1530 1526 1507 1510 1506 1484 1480 1480 1482 1485 1488 1492 1495 1498 1502 1505 1509 1512 1515 1517 1520 1521 1523 1524 1526 1527 1528 1530 1531 1532 1532 1533 1533 1534
1485 1483 1462 1457 1463 1471 1473 1487 1515 1530 1533 1524 1508 1509 1491 1473 1472 1474 1477 1480 1484 1488 1491 1494 1497 1501 1505 1508 1512 1515 1517 1519 1521 1522 1524 1525 1527 1528 1529 1530 1531 1531 1532 1532
1481 1479 1455 1451 1451 1458 1472 1482 1485 1507 1515 1523 1514 1499 1484 1471 1471 1472 1475 1478 1481 1484 1487 1491 1495 1498 1502 1506 1509 1511 1514 1517 1519 1521 1522 1524 1525 1527 1528 1529 1529 1529 1530 1531
1465 1474 1458 1450 1449 1452 1459 1469 1490 1506 1524 1529 1515 1505 1498 1482 1475 1473 1474 1476 1478 1481 1485 1488 1492 1496 1499 1503 1507 1510 1512 1515 1517 1519 1521 1522 1524 1525 1526 1527 1527 1527 1528 1529
1457 1471 1466 1457 1458 1461 1462 1469 1483 1499 1504 1520 1525 1510 1477 1477 1474 1473 1473 1475 1477 1480 1484 1487 1490 1493 1497 1500 1504 1507 1510 1512 1514 1516 1518 1520 1521 1523 1524 1524 1525 1526 1527 1528
1455 1467 1475 1463 1449 1445 1452 1462 1476 1496 1503 1506 1513 1505 1468 1469 1468 1468 1470 1473 1476 1479 1482 1485 1489 1492 1495 1498 1501 1504 1507 1509 1511 1514 1516 1517 1519 1520 1521 1522 1522 1523 1524 1525
1454 1468 1482 1478 1468 1455 1456 1458 1465 1476 1492 1503 1509 1498 1468 1467 1466 1467 1468 1471 1475 1478 1480 1483 1486 1489 1493 1496 1499 1501 1503 1505 1508 1510 1512 1515 1516 1517 1518 1519 1520 1521 1522 1523
1449 1467 1477 1483 1477 1464 1461 1457 1459 1472 1490 1494 1491 1484 1473 1469 1467 1466 1468 1469 1472 1475 1478 1481 1484 1487 1490 1493 1496 1497 1499 1502 1505 1507 1509 1511 1513 1515 1516 1517 1518 1518 1519 1520
1452 1466 1464 1463 1457 1455 1455 1454 1455 1463 1469 1478 1477 1475 1469 1465 1463 1464 1466 1468 1471 1474 1476 1479 1482 1485 1488 1491 1493 1496 1498 1500 1502 1504 1506 1508 1510 1512 1513 1514 1515 1516 1517 1517
1457 1464 1464 1463 1454 1453 1454 1451 1452 1454 1457 1462 1465 1468 1460 1459 1460 1462 1465 1466 1469 1471 1473 1476 1479 1483 1485 1488 1491 1493 1496 1498 1501 1502 1503 1505 1507 1509 1510 1512 1513 1513 1514 1514
1462 1466 1473 1475 1461 1457 1466 1454 1452 1454 1453 1456 1464 1463 1458 1460 1460 1461 1462 1464 1466 1468 1471 1474 1476 1478 1482 1485 1488 1490 1492 1495 1497 1500 1502 1503 1505 1506 1507 1509 1510 1510 1510 1511
1461 1468 1477 1479 1471 1481 1466 1447 1446 1451 1453 1451 1453 1455 1455 1455 1457 1459 1461 1463 1465 1466 1469 1471 1474 1477 1480 1483 1485 1488 1490 1493 1495 1496 1499 1500 1502 1503 1504 1505 1506 1506 1506 1506
1452 1463 1475 1483 1484 1475 1459 1448 1448 1453 1459 1454 1454 1455 1456 1456 1458 1461 1462 1462 1464 1466 1468 1470 1473 1475 1478 1480 1483 1486 1488 1490 1492 1493 1496 1497 1499 1499 1500 1501 1502 1502 1502 1502
1451 1457 1471 1479 1480 1482 1465 1448 1444 1449 1466 1456 1454 1455 1456 1456 1465 1466 1463 1463 1464 1466 1468 1470 1473 1475 1476 1479 1482 1483 1485 1486 1488 1490 1492 1494 1496 1496 1497 1498 1499 1499 1499 1499
1463 1465 1471 1476 1478 1471 1455 1447 1445 1465 1468 1457 1455 1455 1456 1458 1461 1463 1462 1463 1465 1466 1468 1470 1472 1473 1475 1477 1479 1481 1483 1483 1485 1488 1490 1491 1493 1494 1494 1494 1495 1496 1496 1496
1466 1470 1472 1475 1479 1474 1451 1448 1455 1458 1454 1455 1455 1455 1456 1458 1459 1461 1462 1463 1464 1466 1467 1469 1471 1473 1474 1475 1477 1478 1479 1481 1484 1485 1487 1488 1490 1491 1491 1491 1491 1492 1492 1492
1463 1463 1464 1466 1468 1458 1452 1451 1451 1451 1453 1454 1455 1456 1456 1458 1459 1461 1462 1463 1464 1466 1467 1468 1470 1471 1474 1476 1477 1478 1479 1480 1482 1484 1485 1486 1487 1488 1488 1489 1488 1489 1489 1489
1461 1458 1460 1462 1459 1455 1453 1451 1452 1452 1453 1455 1456 1457 1457 1458 1460 1461 1462 1463 1464 1465 1466 1467 1469 1470 1472 1474 1476 1477 1478 1479 1481 1481 1482 1483 1484 1484 1484 1486 1486 1485 1485 1486
1461 1460 1462 1462 1458 1455 1453 1453 1453 1454 1454 1455 1457 1458 1459 1459 1459 1460 1461 1462 1463 1464 1465 1466 1467 1469 1471 1472 1473 1474 1475 1476 1476 1478 1478 1480 1481 1481 1482 1483 1483 1482 1482 1483
1458 1460 1461 1461 1456 1456 1455 1454 1454 1454 1455 1456 1457 1458 1459 1459 1459 1460 1461 1461 1462 1463 1464 1465 1466 1467 1468 1469 1470 1471 1472 1473 1474 1474 1475 1476 1477 1478 1479 1479 1479 1479 1480 1480